owner,sensor,date,latitude,longitude,vertical_datum,sea_water_temperature,qcFlag
Shell,ioos:station:wmo:42365:2,2023-01-01T00:00:00Z,28.2000,-89.1200,23.9,22.8,11111222
Shell,ioos:station:wmo:42365:2,2023-01-01T00:10:00Z,28.2000,-89.1200,23.9,22.8,11111222
Shell,ioos:station:wmo:42365:2,2023-01-01T00:20:00Z,28.2000,-89.1200,23.9,22.8,11111222
Shell,ioos:station:wmo:42365:2,2023-01-01T00:30:00Z,28.2000,-89.1200,23.9,22.8,11111222
Shell,ioos:station:wmo:42365:2,2023-01-01T00:40:00Z,28.2000,-89.1200,23.9,22.8,11111222
Shell,ioos:station:wmo:42365:2,2023-01-01T00:50:00Z,28.2000,-89.1200,23.9,22.8,11111222
Shell,ioos:station:wmo:42365:2,2023-01-01T01:00:00Z,28.2000,-89.1200,23.9,22.9,11111222
Shell,ioos:station:wmo:42365:2,2023-01-01T01:10:00Z,28.2000,-89.1200,23.9,22.9,11111222
Shell,ioos:station:wmo:42365:2,2023-01-01T01:20:00Z,28.2000,-89.1200,23.9,22.9,11111222
Shell,ioos:station:wmo:42365:2,2023-01-01T01:30:00Z,28.2000,-89.1200,23.9,22.9,11111222
Shell,ioos:station:wmo:42365:2,2023-01-01T01:40:00Z,28.2000,-89.1200,23.9,22.9,11111222
Shell,ioos:station:wmo:42365:2,2023-01-01T01:50:00Z,28.2000,-89.1200,23.9,22.9,11111222
Shell,ioos:station:wmo:42365:2,2023-01-01T02:00:00Z,28.2000,-89.1200,23.9,22.9,11111222
Shell,ioos:station:wmo:42365:2,2023-01-01T02:10:00Z,28.2000,-89.1200,23.9,22.9,11111222
Shell,ioos:station:wmo:42365:2,2023-01-01T02:20:00Z,28.2000,-89.1200,23.9,22.8,11111222
Shell,ioos:station:wmo:42365:2,2023-01-01T02:30:00Z,28.2000,-89.1200,23.9,22.8,11111222
Shell,ioos:station:wmo:42365:2,2023-01-01T02:40:00Z,28.2000,-89.1200,23.9,22.8,11111222
Shell,ioos:station:wmo:42365:2,2023-01-01T02:50:00Z,28.2000,-89.1200,23.9,22.8,11111222
Shell,ioos:station:wmo:42365:2,2023-01-01T03:00:00Z,28.2000,-89.1200,23.8,22.8,11111222
Shell,ioos:station:wmo:42365:2,2023-01-01T03:10:00Z,28.2000,-89.1200,23.8,22.8,11111222
Shell,ioos:station:wmo:42365:2,2023-01-01T03:20:00Z,28.2000,-89.1200,23.8,22.8,11111222
Shell,ioos:station:wmo:42365:2,2023-01-01T03:30:00Z,28.2000,-89.1200,23.8,22.8,11111222
Shell,ioos:station:wmo:42365:2,2023-01-01T03:40:00Z,28.2000,-89.1200,23.8,22.8,11111222
Shell,ioos:station:wmo:42365:2,2023-01-01T03:50:00Z,28.2000,-89.1200,23.8,22.9,11111222
Shell,ioos:station:wmo:42365:2,2023-01-01T04:00:00Z,28.2000,-89.1200,23.8,22.9,11111222
Shell,ioos:station:wmo:42365:2,2023-01-01T04:10:00Z,28.2000,-89.1200,23.8,22.9,11111222
Shell,ioos:station:wmo:42365:2,2023-01-01T04:20:00Z,28.2000,-89.1200,23.8,22.9,11111222
Shell,ioos:station:wmo:42365:2,2023-01-01T04:30:00Z,28.2000,-89.1200,23.8,22.9,11111222
Shell,ioos:station:wmo:42365:2,2023-01-01T04:40:00Z,28.2000,-89.1200,23.8,22.9,11111222
Shell,ioos:station:wmo:42365:2,2023-01-01T04:50:00Z,28.2000,-89.1200,23.8,22.9,11111222
Shell,ioos:station:wmo:42365:2,2023-01-01T05:00:00Z,28.2000,-89.1200,23.8,22.9,11111222
Shell,ioos:station:wmo:42365:2,2023-01-01T05:10:00Z,28.2000,-89.1200,23.8,22.9,11111222
Shell,ioos:station:wmo:42365:2,2023-01-01T05:20:00Z,28.2000,-89.1200,23.8,22.9,11111222
Shell,ioos:station:wmo:42365:2,2023-01-01T05:30:00Z,28.2000,-89.1200,23.8,22.9,11111222
Shell,ioos:station:wmo:42365:2,2023-01-01T05:40:00Z,28.2000,-89.1200,23.7,22.9,11111222
Shell,ioos:station:wmo:42365:2,2023-01-01T05:50:00Z,28.2000,-89.1200,23.7,22.9,11111222
Shell,ioos:station:wmo:42365:2,2023-01-01T06:00:00Z,28.2000,-89.1200,23.7,22.9,11111222
Shell,ioos:station:wmo:42365:2,2023-01-01T06:10:00Z,28.2000,-89.1200,23.7,22.8,11111222
Shell,ioos:station:wmo:42365:2,2023-01-01T06:20:00Z,28.2000,-89.1200,23.7,22.8,11111222
Shell,ioos:station:wmo:42365:2,2023-01-01T06:30:00Z,28.2000,-89.1200,23.7,22.8,11111222
Shell,ioos:station:wmo:42365:2,2023-01-01T06:40:00Z,28.2000,-89.1200,23.7,22.8,11111222
Shell,ioos:station:wmo:42365:2,2023-01-01T06:50:00Z,28.2000,-89.1200,23.7,22.8,11111222
Shell,ioos:station:wmo:42365:2,2023-01-01T07:00:00Z,28.2000,-89.1200,23.7,22.7,11111222
Shell,ioos:station:wmo:42365:2,2023-01-01T07:11:00Z,28.2000,-89.1200,23.7,22.7,11111222
Shell,ioos:station:wmo:42365:2,2023-01-01T07:21:00Z,28.2000,-89.1200,23.7,22.7,11111222
Shell,ioos:station:wmo:42365:2,2023-01-01T07:31:00Z,28.2000,-89.1200,23.7,22.7,11111222
Shell,ioos:station:wmo:42365:2,2023-01-01T07:41:00Z,28.2000,-89.1200,23.7,22.7,11111222
Shell,ioos:station:wmo:42365:2,2023-01-01T07:51:00Z,28.2000,-89.1200,23.7,22.7,11111222
Shell,ioos:station:wmo:42365:2,2023-01-01T08:01:00Z,28.2000,-89.1200,23.7,22.7,11111222
Shell,ioos:station:wmo:42365:2,2023-01-01T08:11:00Z,28.2000,-89.1200,23.7,22.6,11111222
Shell,ioos:station:wmo:42365:2,2023-01-01T08:21:00Z,28.2000,-89.1200,23.7,22.6,11111222
Shell,ioos:station:wmo:42365:2,2023-01-01T08:31:00Z,28.2000,-89.1200,23.7,22.6,11111222
Shell,ioos:station:wmo:42365:2,2023-01-01T08:41:00Z,28.2000,-89.1200,23.7,22.7,11111222
Shell,ioos:station:wmo:42365:2,2023-01-01T08:51:00Z,28.2000,-89.1200,23.7,22.7,11111222
Shell,ioos:station:wmo:42365:2,2023-01-01T09:01:00Z,28.2000,-89.1200,23.7,22.7,11111222
Shell,ioos:station:wmo:42365:2,2023-01-01T09:11:00Z,28.2000,-89.1200,23.7,22.7,11111222
Shell,ioos:station:wmo:42365:2,2023-01-01T09:21:00Z,28.2000,-89.1200,23.7,22.6,11111222
Shell,ioos:station:wmo:42365:2,2023-01-01T09:31:00Z,28.2000,-89.1200,23.7,22.6,11111222
Shell,ioos:station:wmo:42365:2,2023-01-01T09:41:00Z,28.2000,-89.1200,23.7,22.6,11111222
Shell,ioos:station:wmo:42365:2,2023-01-01T09:51:00Z,28.2000,-89.1200,23.7,22.7,11111222
Shell,ioos:station:wmo:42365:2,2023-01-01T10:01:00Z,28.2000,-89.1200,23.7,22.6,11111222
Shell,ioos:station:wmo:42365:2,2023-01-01T10:11:00Z,28.2000,-89.1200,23.7,22.6,11111222
Shell,ioos:station:wmo:42365:2,2023-01-01T10:21:00Z,28.2000,-89.1200,23.7,22.6,11111222
Shell,ioos:station:wmo:42365:2,2023-01-01T10:31:00Z,28.2000,-89.1200,23.7,22.6,11111222
Shell,ioos:station:wmo:42365:2,2023-01-01T10:41:00Z,28.2000,-89.1200,23.7,22.5,11111222
Shell,ioos:station:wmo:42365:2,2023-01-01T10:51:00Z,28.2000,-89.1200,23.7,22.5,11111222
Shell,ioos:station:wmo:42365:2,2023-01-01T11:01:00Z,28.2000,-89.1200,23.7,22.5,11111222
Shell,ioos:station:wmo:42365:2,2023-01-01T11:11:00Z,28.2000,-89.1200,23.7,22.4,11111222
Shell,ioos:station:wmo:42365:2,2023-01-01T11:21:00Z,28.2000,-89.1200,23.7,22.4,11111222
Shell,ioos:station:wmo:42365:2,2023-01-01T11:31:00Z,28.2000,-89.1200,23.7,22.3,11111222
Shell,ioos:station:wmo:42365:2,2023-01-01T11:41:00Z,28.2000,-89.1200,23.7,22.3,11111222
Shell,ioos:station:wmo:42365:2,2023-01-01T11:51:00Z,28.2000,-89.1200,23.8,22.3,11111222
Shell,ioos:station:wmo:42365:2,2023-01-01T12:01:00Z,28.2000,-89.1200,23.8,22.2,11111222
Shell,ioos:station:wmo:42365:2,2023-01-01T12:11:00Z,28.2000,-89.1200,23.8,22.1,11111222
Shell,ioos:station:wmo:42365:2,2023-01-01T12:21:00Z,28.2000,-89.1200,23.8,22.0,11111222
Shell,ioos:station:wmo:42365:2,2023-01-01T12:31:00Z,28.2000,-89.1200,23.8,21.9,11111222
Shell,ioos:station:wmo:42365:2,2023-01-01T12:41:00Z,28.2000,-89.1200,23.8,21.9,11111222
Shell,ioos:station:wmo:42365:2,2023-01-01T12:51:00Z,28.2000,-89.1200,23.8,21.9,11111222
Shell,ioos:station:wmo:42365:2,2023-01-01T13:01:00Z,28.2000,-89.1200,23.8,21.9,11111222
Shell,ioos:station:wmo:42365:2,2023-01-01T13:11:00Z,28.2000,-89.1200,23.8,22.0,11111222
Shell,ioos:station:wmo:42365:2,2023-01-01T13:21:00Z,28.2000,-89.1200,23.8,22.0,11111222
Shell,ioos:station:wmo:42365:2,2023-01-01T13:31:00Z,28.2000,-89.1200,23.8,22.0,11111222
Shell,ioos:station:wmo:42365:2,2023-01-01T13:41:00Z,28.2000,-89.1200,23.8,21.8,11111222
Shell,ioos:station:wmo:42365:2,2023-01-01T13:51:00Z,28.2000,-89.1200,23.8,21.7,11111222
Shell,ioos:station:wmo:42365:2,2023-01-01T14:01:00Z,28.2000,-89.1200,23.9,21.6,11111222
Shell,ioos:station:wmo:42365:2,2023-01-01T14:11:00Z,28.2000,-89.1200,23.9,21.4,11111222
Shell,ioos:station:wmo:42365:2,2023-01-01T14:21:00Z,28.2000,-89.1200,23.9,21.3,11111222
Shell,ioos:station:wmo:42365:2,2023-01-01T14:31:00Z,28.2000,-89.1200,23.9,21.2,11111222
Shell,ioos:station:wmo:42365:2,2023-01-01T14:41:00Z,28.2000,-89.1200,23.9,21.2,11111222
Shell,ioos:station:wmo:42365:2,2023-01-01T14:51:00Z,28.2000,-89.1200,23.9,21.1,11111222
Shell,ioos:station:wmo:42365:2,2023-01-01T15:01:00Z,28.2000,-89.1200,23.9,21.1,11111222
Shell,ioos:station:wmo:42365:2,2023-01-01T15:11:00Z,28.2000,-89.1200,23.9,21.0,11111222
Shell,ioos:station:wmo:42365:2,2023-01-01T15:21:00Z,28.2000,-89.1200,23.9,20.9,11111222
Shell,ioos:station:wmo:42365:2,2023-01-01T15:31:00Z,28.2000,-89.1200,23.9,20.9,11111222
Shell,ioos:station:wmo:42365:2,2023-01-01T15:41:00Z,28.2000,-89.1200,23.9,20.9,11111222
Shell,ioos:station:wmo:42365:2,2023-01-01T15:51:00Z,28.2000,-89.1200,23.9,20.9,11111222
Shell,ioos:station:wmo:42365:2,2023-01-01T16:01:00Z,28.2000,-89.1200,24.0,20.9,11111222
Shell,ioos:station:wmo:42365:2,2023-01-01T16:11:00Z,28.2000,-89.1200,24.0,21.0,11111222
Shell,ioos:station:wmo:42365:2,2023-01-01T16:21:00Z,28.2000,-89.1200,24.0,21.1,11111222
Shell,ioos:station:wmo:42365:2,2023-01-01T16:31:00Z,28.2000,-89.1200,24.0,21.2,11111222
Shell,ioos:station:wmo:42365:2,2023-01-01T16:41:00Z,28.2000,-89.1200,24.0,21.3,11111222
Shell,ioos:station:wmo:42365:2,2023-01-01T16:51:00Z,28.2000,-89.1200,24.0,21.4,11111222
Shell,ioos:station:wmo:42365:2,2023-01-01T17:01:00Z,28.2000,-89.1200,24.0,21.6,11111222
Shell,ioos:station:wmo:42365:2,2023-01-01T17:11:00Z,28.2000,-89.1200,24.0,21.7,11111222
Shell,ioos:station:wmo:42365:2,2023-01-01T17:21:00Z,28.2000,-89.1200,24.0,21.9,11111222
Shell,ioos:station:wmo:42365:2,2023-01-01T17:31:00Z,28.2000,-89.1200,24.0,22.0,11111222
Shell,ioos:station:wmo:42365:2,2023-01-01T17:41:00Z,28.2000,-89.1200,24.0,22.1,11111222
Shell,ioos:station:wmo:42365:2,2023-01-01T17:51:00Z,28.2000,-89.1200,24.0,22.2,11111222
Shell,ioos:station:wmo:42365:2,2023-01-01T18:01:00Z,28.2000,-89.1200,24.0,22.2,11111222
Shell,ioos:station:wmo:42365:2,2023-01-01T18:11:00Z,28.2000,-89.1200,24.0,22.3,11111222
Shell,ioos:station:wmo:42365:2,2023-01-01T18:21:00Z,28.2000,-89.1200,24.0,22.3,11111222
Shell,ioos:station:wmo:42365:2,2023-01-01T18:31:00Z,28.2000,-89.1200,24.0,22.3,11111222
Shell,ioos:station:wmo:42365:2,2023-01-01T18:41:00Z,28.2000,-89.1200,24.0,22.4,11111222
Shell,ioos:station:wmo:42365:2,2023-01-01T18:51:00Z,28.2000,-89.1200,24.0,22.4,11111222
Shell,ioos:station:wmo:42365:2,2023-01-01T19:02:00Z,28.2000,-89.1200,24.0,22.4,11111222
Shell,ioos:station:wmo:42365:2,2023-01-01T19:12:00Z,28.2000,-89.1200,24.0,22.4,11111222
Shell,ioos:station:wmo:42365:2,2023-01-01T19:22:00Z,28.2000,-89.1200,24.0,22.4,11111222
Shell,ioos:station:wmo:42365:2,2023-01-01T19:32:00Z,28.2000,-89.1200,24.0,22.5,11111222
Shell,ioos:station:wmo:42365:2,2023-01-01T19:42:00Z,28.2000,-89.1200,24.0,22.5,11111222
Shell,ioos:station:wmo:42365:2,2023-01-01T19:52:00Z,28.2000,-89.1200,24.0,22.5,11111222
Shell,ioos:station:wmo:42365:2,2023-01-01T20:02:00Z,28.2000,-89.1200,24.0,22.5,11111222
Shell,ioos:station:wmo:42365:2,2023-01-01T20:12:00Z,28.2000,-89.1200,24.1,22.5,11111222
Shell,ioos:station:wmo:42365:2,2023-01-01T20:22:00Z,28.2000,-89.1200,24.1,22.5,11111222
Shell,ioos:station:wmo:42365:2,2023-01-01T20:32:00Z,28.2000,-89.1200,24.1,22.5,11111222
Shell,ioos:station:wmo:42365:2,2023-01-01T20:42:00Z,28.2000,-89.1200,24.0,22.5,11111222
Shell,ioos:station:wmo:42365:2,2023-01-01T20:52:00Z,28.2000,-89.1200,24.1,22.6,11111222
Shell,ioos:station:wmo:42365:2,2023-01-01T21:02:00Z,28.2000,-89.1200,24.1,22.6,11111222
Shell,ioos:station:wmo:42365:2,2023-01-01T21:12:00Z,28.2000,-89.1200,24.1,22.6,11111222
Shell,ioos:station:wmo:42365:2,2023-01-01T21:22:00Z,28.2000,-89.1200,24.1,22.6,11111222
Shell,ioos:station:wmo:42365:2,2023-01-01T21:32:00Z,28.2000,-89.1200,24.1,22.6,11111222
Shell,ioos:station:wmo:42365:2,2023-01-01T21:42:00Z,28.2000,-89.1200,24.1,22.6,11111222
Shell,ioos:station:wmo:42365:2,2023-01-01T21:52:00Z,28.2000,-89.1200,24.1,22.6,11111222
Shell,ioos:station:wmo:42365:2,2023-01-01T22:02:00Z,28.2000,-89.1200,24.1,22.6,11111222
Shell,ioos:station:wmo:42365:2,2023-01-01T22:12:00Z,28.2000,-89.1200,24.1,22.6,11111222
Shell,ioos:station:wmo:42365:2,2023-01-01T22:22:00Z,28.2000,-89.1200,24.1,22.6,11111222
Shell,ioos:station:wmo:42365:2,2023-01-01T22:32:00Z,28.2000,-89.1200,24.1,22.7,11111222
Shell,ioos:station:wmo:42365:2,2023-01-01T22:42:00Z,28.2000,-89.1200,24.1,22.7,11111222
Shell,ioos:station:wmo:42365:2,2023-01-01T22:52:00Z,28.2000,-89.1200,24.1,22.7,11111222
Shell,ioos:station:wmo:42365:2,2023-01-01T23:02:00Z,28.2000,-89.1200,24.1,22.7,11111222
Shell,ioos:station:wmo:42365:2,2023-01-01T23:12:00Z,28.2000,-89.1200,24.1,22.7,11111222
Shell,ioos:station:wmo:42365:2,2023-01-01T23:22:00Z,28.2000,-89.1200,24.1,22.7,11111222
Shell,ioos:station:wmo:42365:2,2023-01-01T23:32:00Z,28.2000,-89.1200,24.1,22.7,11111222
Shell,ioos:station:wmo:42365:2,2023-01-01T23:42:00Z,28.2000,-89.1200,24.1,22.7,11111222
Shell,ioos:station:wmo:42365:2,2023-01-01T23:52:00Z,28.2000,-89.1200,24.1,22.7,11111222
Shell,ioos:station:wmo:42365:2,2023-01-02T00:02:00Z,28.2000,-89.1200,24.1,22.7,11111222
Shell,ioos:station:wmo:42365:2,2023-01-02T00:12:00Z,28.2000,-89.1200,24.1,22.7,11111222
Shell,ioos:station:wmo:42365:2,2023-01-02T00:22:00Z,28.2000,-89.1200,24.0,22.7,11111222
Shell,ioos:station:wmo:42365:2,2023-01-02T00:32:00Z,28.2000,-89.1200,24.0,22.7,11111222
Shell,ioos:station:wmo:42365:2,2023-01-02T00:42:00Z,28.2000,-89.1200,24.0,22.7,11111222
Shell,ioos:station:wmo:42365:2,2023-01-02T00:52:00Z,28.2000,-89.1200,24.0,22.7,11111222
Shell,ioos:station:wmo:42365:2,2023-01-02T01:02:00Z,28.2000,-89.1200,24.0,22.6,11111222
Shell,ioos:station:wmo:42365:2,2023-01-02T01:12:00Z,28.2000,-89.1200,24.0,22.6,11111222
Shell,ioos:station:wmo:42365:2,2023-01-02T01:22:00Z,28.2000,-89.1200,24.0,22.6,11111222
Shell,ioos:station:wmo:42365:2,2023-01-02T01:32:00Z,28.2000,-89.1200,24.0,22.6,11111222
Shell,ioos:station:wmo:42365:2,2023-01-02T01:42:00Z,28.2000,-89.1200,24.0,22.6,11111222
Shell,ioos:station:wmo:42365:2,2023-01-02T01:52:00Z,28.2000,-89.1200,24.0,22.6,11111222
Shell,ioos:station:wmo:42365:2,2023-01-02T02:02:00Z,28.2000,-89.1200,24.0,22.6,11111222
Shell,ioos:station:wmo:42365:2,2023-01-02T02:12:00Z,28.2000,-89.1200,24.0,22.6,11111222
Shell,ioos:station:wmo:42365:2,2023-01-02T02:22:00Z,28.2000,-89.1200,24.0,22.6,11111222
Shell,ioos:station:wmo:42365:2,2023-01-02T02:32:00Z,28.2000,-89.1200,24.0,22.6,11111222
Shell,ioos:station:wmo:42365:2,2023-01-02T02:42:00Z,28.2000,-89.1200,24.0,22.6,11111222
Shell,ioos:station:wmo:42365:2,2023-01-02T02:52:00Z,28.2000,-89.1200,24.0,22.6,11111222
Shell,ioos:station:wmo:42365:2,2023-01-02T03:02:00Z,28.2000,-89.1200,24.0,22.6,11111222
Shell,ioos:station:wmo:42365:2,2023-01-02T03:12:00Z,28.2000,-89.1200,23.9,22.6,11111222
Shell,ioos:station:wmo:42365:2,2023-01-02T03:22:00Z,28.2000,-89.1200,23.9,22.6,11111222
Shell,ioos:station:wmo:42365:2,2023-01-02T03:32:00Z,28.2000,-89.1200,23.9,22.6,11111222
Shell,ioos:station:wmo:42365:2,2023-01-02T03:42:00Z,28.2000,-89.1200,23.9,22.6,11111222
Shell,ioos:station:wmo:42365:2,2023-01-02T03:52:00Z,28.2000,-89.1200,23.9,22.6,11111222
Shell,ioos:station:wmo:42365:2,2023-01-02T04:02:00Z,28.2000,-89.1200,23.9,22.6,11111222
Shell,ioos:station:wmo:42365:2,2023-01-02T04:12:00Z,28.2000,-89.1200,23.9,22.6,11111222
Shell,ioos:station:wmo:42365:2,2023-01-02T04:22:00Z,28.2000,-89.1200,23.9,22.6,11111222
Shell,ioos:station:wmo:42365:2,2023-01-02T04:32:00Z,28.2000,-89.1200,23.9,22.6,11111222
Shell,ioos:station:wmo:42365:2,2023-01-02T04:42:00Z,28.2000,-89.1200,23.9,22.6,11111222
Shell,ioos:station:wmo:42365:2,2023-01-02T04:52:00Z,28.2000,-89.1200,23.9,22.6,11111222
Shell,ioos:station:wmo:42365:2,2023-01-02T05:02:00Z,28.2000,-89.1200,23.9,22.6,11111222
Shell,ioos:station:wmo:42365:2,2023-01-02T05:12:00Z,28.2000,-89.1200,23.8,22.5,11111222
Shell,ioos:station:wmo:42365:2,2023-01-02T05:22:00Z,28.2000,-89.1200,23.8,22.5,11111222
Shell,ioos:station:wmo:42365:2,2023-01-02T05:32:00Z,28.2000,-89.1200,23.8,22.5,11111222
Shell,ioos:station:wmo:42365:2,2023-01-02T05:42:00Z,28.2000,-89.1200,23.8,22.5,11111222
Shell,ioos:station:wmo:42365:2,2023-01-02T05:52:00Z,28.2000,-89.1200,23.8,22.5,11111222
Shell,ioos:station:wmo:42365:2,2023-01-02T06:02:00Z,28.2000,-89.1200,23.8,22.5,11111222
Shell,ioos:station:wmo:42365:2,2023-01-02T06:12:00Z,28.2000,-89.1200,23.8,22.5,11111222
Shell,ioos:station:wmo:42365:2,2023-01-02T06:22:00Z,28.2000,-89.1200,23.8,22.5,11111222
Shell,ioos:station:wmo:42365:2,2023-01-02T06:32:00Z,28.2000,-89.1200,23.8,22.5,11111222
Shell,ioos:station:wmo:42365:2,2023-01-02T06:42:00Z,28.2000,-89.1200,23.8,22.5,11111222
Shell,ioos:station:wmo:42365:2,2023-01-02T06:53:00Z,28.2000,-89.1200,23.8,22.4,11111222
Shell,ioos:station:wmo:42365:2,2023-01-02T07:03:00Z,28.2000,-89.1200,23.8,22.4,11111222
Shell,ioos:station:wmo:42365:2,2023-01-02T07:13:00Z,28.2000,-89.1200,23.8,22.3,11111222
Shell,ioos:station:wmo:42365:2,2023-01-02T07:23:00Z,28.2000,-89.1200,23.8,22.3,11111222
Shell,ioos:station:wmo:42365:2,2023-01-02T07:33:00Z,28.2000,-89.1200,23.8,22.1,11111222
Shell,ioos:station:wmo:42365:2,2023-01-02T07:43:00Z,28.2000,-89.1200,23.7,22.2,11111222
Shell,ioos:station:wmo:42365:2,2023-01-02T07:53:00Z,28.2000,-89.1200,23.7,22.3,11111222
Shell,ioos:station:wmo:42365:2,2023-01-02T08:03:00Z,28.2000,-89.1200,23.7,22.3,11111222
Shell,ioos:station:wmo:42365:2,2023-01-02T08:13:00Z,28.2000,-89.1200,23.7,22.3,11111222
Shell,ioos:station:wmo:42365:2,2023-01-02T08:23:00Z,28.2000,-89.1200,23.7,22.1,11111222
Shell,ioos:station:wmo:42365:2,2023-01-02T08:33:00Z,28.2000,-89.1200,23.7,22.2,11111222
Shell,ioos:station:wmo:42365:2,2023-01-02T08:43:00Z,28.2000,-89.1200,23.7,22.1,11111222
Shell,ioos:station:wmo:42365:2,2023-01-02T08:53:00Z,28.2000,-89.1200,23.7,22.1,11111222
Shell,ioos:station:wmo:42365:2,2023-01-02T09:03:00Z,28.2000,-89.1200,23.7,22.1,11111222
Shell,ioos:station:wmo:42365:2,2023-01-02T09:13:00Z,28.2000,-89.1200,23.7,22.0,11111222
Shell,ioos:station:wmo:42365:2,2023-01-02T09:23:00Z,28.2000,-89.1200,23.7,21.8,11111222
Shell,ioos:station:wmo:42365:2,2023-01-02T09:33:00Z,28.2000,-89.1200,23.7,21.8,11111222
Shell,ioos:station:wmo:42365:2,2023-01-02T09:43:00Z,28.2000,-89.1200,23.7,21.8,11111222
Shell,ioos:station:wmo:42365:2,2023-01-02T09:53:00Z,28.2000,-89.1200,23.7,21.9,11111222
Shell,ioos:station:wmo:42365:2,2023-01-02T10:03:00Z,28.2000,-89.1200,23.7,21.9,11111222
Shell,ioos:station:wmo:42365:2,2023-01-02T10:13:00Z,28.2000,-89.1200,23.7,21.9,11111222
Shell,ioos:station:wmo:42365:2,2023-01-02T10:23:00Z,28.2000,-89.1200,23.7,21.9,11111222
Shell,ioos:station:wmo:42365:2,2023-01-02T10:33:00Z,28.2000,-89.1200,23.7,21.9,11111222
Shell,ioos:station:wmo:42365:2,2023-01-02T10:43:00Z,28.2000,-89.1200,23.7,21.9,11111222
Shell,ioos:station:wmo:42365:2,2023-01-02T10:53:00Z,28.2000,-89.1200,23.7,21.9,11111222
Shell,ioos:station:wmo:42365:2,2023-01-02T11:03:00Z,28.2000,-89.1200,23.7,21.9,11111222
Shell,ioos:station:wmo:42365:2,2023-01-02T11:13:00Z,28.2000,-89.1200,23.7,21.9,11111222
Shell,ioos:station:wmo:42365:2,2023-01-02T11:23:00Z,28.2000,-89.1200,23.7,21.9,11111222
Shell,ioos:station:wmo:42365:2,2023-01-02T11:33:00Z,28.2000,-89.1200,23.7,21.8,11111222
Shell,ioos:station:wmo:42365:2,2023-01-02T11:43:00Z,28.2000,-89.1200,23.7,21.7,11111222
Shell,ioos:station:wmo:42365:2,2023-01-02T11:53:00Z,28.2000,-89.1200,23.7,21.6,11111222
Shell,ioos:station:wmo:42365:2,2023-01-02T12:03:00Z,28.2000,-89.1200,23.7,21.7,11111222
Shell,ioos:station:wmo:42365:2,2023-01-02T12:13:00Z,28.2000,-89.1200,23.7,21.7,11111222
Shell,ioos:station:wmo:42365:2,2023-01-02T12:23:00Z,28.2000,-89.1200,23.7,21.7,11111222
Shell,ioos:station:wmo:42365:2,2023-01-02T12:33:00Z,28.2000,-89.1200,23.7,21.8,11111222
Shell,ioos:station:wmo:42365:2,2023-01-02T12:43:00Z,28.2000,-89.1200,23.8,21.8,11111222
Shell,ioos:station:wmo:42365:2,2023-01-02T12:53:00Z,28.2000,-89.1200,23.8,21.7,11111222
Shell,ioos:station:wmo:42365:2,2023-01-02T13:03:00Z,28.2000,-89.1200,23.8,21.7,11111222
Shell,ioos:station:wmo:42365:2,2023-01-02T13:13:00Z,28.2000,-89.1200,23.8,21.6,11111222
Shell,ioos:station:wmo:42365:2,2023-01-02T13:23:00Z,28.2000,-89.1200,23.8,21.5,11111222
Shell,ioos:station:wmo:42365:2,2023-01-02T13:33:00Z,28.2000,-89.1200,23.8,21.3,11111222
Shell,ioos:station:wmo:42365:2,2023-01-02T13:43:00Z,28.2000,-89.1200,23.8,21.3,11111222
Shell,ioos:station:wmo:42365:2,2023-01-02T13:53:00Z,28.2000,-89.1200,23.8,21.2,11111222
Shell,ioos:station:wmo:42365:2,2023-01-02T14:03:00Z,28.2000,-89.1200,23.8,21.2,11111222
Shell,ioos:station:wmo:42365:2,2023-01-02T14:13:00Z,28.2000,-89.1200,23.8,21.3,11111222
Shell,ioos:station:wmo:42365:2,2023-01-02T14:23:00Z,28.2000,-89.1200,23.8,21.3,11111222
Shell,ioos:station:wmo:42365:2,2023-01-02T14:33:00Z,28.2000,-89.1200,23.8,21.2,11111222
Shell,ioos:station:wmo:42365:2,2023-01-02T14:43:00Z,28.2000,-89.1200,23.8,21.2,11111222
Shell,ioos:station:wmo:42365:2,2023-01-02T14:53:00Z,28.2000,-89.1200,23.9,21.2,11111222
Shell,ioos:station:wmo:42365:2,2023-01-02T15:03:00Z,28.2000,-89.1200,23.9,21.2,11111222
Shell,ioos:station:wmo:42365:2,2023-01-02T15:13:00Z,28.2000,-89.1200,23.9,21.2,11111222
Shell,ioos:station:wmo:42365:2,2023-01-02T15:23:00Z,28.2000,-89.1200,23.9,21.2,11111222
Shell,ioos:station:wmo:42365:2,2023-01-02T15:33:00Z,28.2000,-89.1200,23.9,21.2,11111222
Shell,ioos:station:wmo:42365:2,2023-01-02T15:43:00Z,28.2000,-89.1200,23.9,21.1,11111222
Shell,ioos:station:wmo:42365:2,2023-01-02T15:53:00Z,28.2000,-89.1200,23.9,21.1,11111222
Shell,ioos:station:wmo:42365:2,2023-01-02T16:03:00Z,28.2000,-89.1200,23.9,21.1,11111222
Shell,ioos:station:wmo:42365:2,2023-01-02T16:13:00Z,28.2000,-89.1200,23.9,21.2,11111222
Shell,ioos:station:wmo:42365:2,2023-01-02T16:23:00Z,28.2000,-89.1200,23.9,21.2,11111222
Shell,ioos:station:wmo:42365:2,2023-01-02T16:33:00Z,28.2000,-89.1200,23.9,21.2,11111222
Shell,ioos:station:wmo:42365:2,2023-01-02T16:43:00Z,28.2000,-89.1200,23.9,21.2,11111222
Shell,ioos:station:wmo:42365:2,2023-01-02T16:53:00Z,28.2000,-89.1200,24.0,21.1,11111222
Shell,ioos:station:wmo:42365:2,2023-01-02T17:03:00Z,28.2000,-89.1200,24.0,21.1,11111222
Shell,ioos:station:wmo:42365:2,2023-01-02T17:13:00Z,28.2000,-89.1200,24.0,21.1,11111222
Shell,ioos:station:wmo:42365:2,2023-01-02T17:23:00Z,28.2000,-89.1200,24.0,21.2,11111222
Shell,ioos:station:wmo:42365:2,2023-01-02T17:33:00Z,28.2000,-89.1200,24.0,21.2,11111222
Shell,ioos:station:wmo:42365:2,2023-01-02T17:43:00Z,28.2000,-89.1200,24.0,21.1,11111222
Shell,ioos:station:wmo:42365:2,2023-01-02T17:53:00Z,28.2000,-89.1200,24.0,21.1,11111222
Shell,ioos:station:wmo:42365:2,2023-01-02T18:03:00Z,28.2000,-89.1200,24.0,21.1,11111222
Shell,ioos:station:wmo:42365:2,2023-01-02T18:13:00Z,28.2000,-89.1200,24.0,21.1,11111222
Shell,ioos:station:wmo:42365:2,2023-01-02T18:23:00Z,28.2000,-89.1200,24.0,21.1,11111222
Shell,ioos:station:wmo:42365:2,2023-01-02T18:33:00Z,28.2000,-89.1200,24.0,21.0,11111222
Shell,ioos:station:wmo:42365:2,2023-01-02T18:44:00Z,28.2000,-89.1200,24.0,20.9,11111222
Shell,ioos:station:wmo:42365:2,2023-01-02T18:54:00Z,28.2000,-89.1200,24.0,20.9,11111222
Shell,ioos:station:wmo:42365:2,2023-01-02T19:04:00Z,28.2000,-89.1200,24.0,20.9,11111222
Shell,ioos:station:wmo:42365:2,2023-01-02T19:14:00Z,28.2000,-89.1200,24.0,21.0,11111222
Shell,ioos:station:wmo:42365:2,2023-01-02T19:24:00Z,28.2000,-89.1200,24.0,21.0,11111222
Shell,ioos:station:wmo:42365:2,2023-01-02T19:34:00Z,28.2000,-89.1200,24.1,21.0,11111222
Shell,ioos:station:wmo:42365:2,2023-01-02T19:44:00Z,28.2000,-89.1200,24.1,21.0,11111222
Shell,ioos:station:wmo:42365:2,2023-01-02T19:54:00Z,28.2000,-89.1200,24.1,21.0,11111222
Shell,ioos:station:wmo:42365:2,2023-01-02T20:04:00Z,28.2000,-89.1200,24.1,21.1,11111222
Shell,ioos:station:wmo:42365:2,2023-01-02T20:14:00Z,28.2000,-89.1200,24.1,21.1,11111222
Shell,ioos:station:wmo:42365:2,2023-01-02T20:24:00Z,28.2000,-89.1200,24.1,21.1,11111222
Shell,ioos:station:wmo:42365:2,2023-01-02T20:34:00Z,28.2000,-89.1200,24.1,21.1,11111222